History for KIDP

Independence, KS

Daily Weekly Monthly
Daily Summary for Friday, March 22, 2019
  Actual: Average: Record:
Temperature
Mean Temperature: 48 °F / 9 °C - :  
Max Temperature: 67 °F / 19 °C - - (-1)
Min Temperature: 28 °F / -2 °C - - (-1)
Degree Days
Heating Degree Days: 18    
Moisture
Dew Point 32 °F / 0 °C    
Average Humidity 56    
Maximum Humidity 92    
Minimum Humidity 22    
Precipitation
Precipitation 0.00 in / 0.00 cm - - ()
Sea Level Pressure
Sea Level Pressure 30.17 in / 1022 hPa   
Wind
Wind Speed 4 mph / 6 km/h (ESE)  
Max Wind Speed 10 mph / 16 km/h   
Max Gust Speed -   
Visibility 10 miles / 16 kilometers   
Events     
Averages and records for this station are not official NWS values.
Key: T is trace of precipitation, MM is missing value
Source: NWS Daily Summary

Graphs

Observations

History Graphs Observations

Obs Go Here...

Features

Weather Apps

WunderRadio

Weather Underground Apps
Check out our wide variety of mobile and setup applications.

Weather Underground Applications

Top of Page

© Copyright 2019
The Weather Company, LLC
Time(CDT)TemperatureDew PointHumidity Sea Level Pressure Visibility Wind DirectionWind SpeedGust SpeedPrecipitationEvents Conditions
12:15 AM 38.8 °F / 3.8 °C 34.3 °F / 1.3 °C 84% 30.20 in / 1022.6 hPa 10.0 miles / 16.1 kilometers West 4.6 mph / 7.4 km/h - N/A   Clear
12:35 AM 40.5 °F / 4.7 °C 33.1 °F / 0.6 °C 75% 30.19 in / 1022.2 hPa 10.0 miles / 16.1 kilometers Calm Calm - N/A   Clear
12:55 AM 39.0 °F / 3.9 °C 32.9 °F / 0.5 °C 79% 30.19 in / 1022.2 hPa 10.0 miles / 16.1 kilometers NNE 3.5 mph / 5.6 km/h - N/A   Clear
1:15 AM 36.3 °F / 2.4 °C 31.5 °F / -0.3 °C 83% 30.19 in / 1022.2 hPa 10.0 miles / 16.1 kilometers Calm Calm - N/A   Clear
1:35 AM 38.3 °F / 3.5 °C 32.4 °F / 0.2 °C 79% 30.20 in / 1022.6 hPa 10.0 miles / 16.1 kilometers WNW 4.6 mph / 7.4 km/h - N/A   Clear
1:55 AM 39.2 °F / 4.0 °C 32.2 °F / 0.1 °C 76% 30.20 in / 1022.6 hPa 10.0 miles / 16.1 kilometers NNE 3.5 mph / 5.6 km/h - N/A   Clear
2:15 AM 37.4 °F / 3.0 °C 31.6 °F / -0.2 °C 80% 30.20 in / 1022.6 hPa 10.0 miles / 16.1 kilometers SW 4.6 mph / 7.4 km/h - N/A   Clear
2:35 AM 38.1 °F / 3.4 °C 31.5 °F / -0.3 °C 77% 30.19 in / 1022.2 hPa 10.0 miles / 16.1 kilometers NE 3.5 mph / 5.6 km/h - N/A   Clear
2:55 AM 36.0 °F / 2.2 °C 30.9 °F / -0.6 °C 82% 30.19 in / 1022.2 hPa 10.0 miles / 16.1 kilometers Calm Calm - N/A   Clear
3:15 AM 35.6 °F / 2.0 °C 31.3 °F / -0.4 °C 84% 30.20 in / 1022.6 hPa 10.0 miles / 16.1 kilometers West 4.6 mph / 7.4 km/h - N/A   Clear
3:35 AM 35.2 °F / 1.8 °C 30.7 °F / -0.7 °C 84% 30.20 in / 1022.6 hPa 10.0 miles / 16.1 kilometers West 4.6 mph / 7.4 km/h - N/A   Clear
3:55 AM 36.0 °F / 2.2 °C 31.6 °F / -0.2 °C 84% 30.19 in / 1022.2 hPa 10.0 miles / 16.1 kilometers North 3.5 mph / 5.6 km/h - N/A   Clear
4:15 AM 35.4 °F / 1.9 °C 29.5 °F / -1.4 °C 79% 30.19 in / 1022.2 hPa 10.0 miles / 16.1 kilometers West 4.6 mph / 7.4 km/h - N/A   Clear
4:35 AM 34.5 °F / 1.4 °C 31.1 °F / -0.5 °C 87% 30.18 in / 1021.9 hPa 10.0 miles / 16.1 kilometers ENE 3.5 mph / 5.6 km/h - N/A   Clear
4:55 AM 33.8 °F / 1.0 °C 29.3 °F / -1.5 °C 84% 30.18 in / 1021.9 hPa 10.0 miles / 16.1 kilometers Calm Calm - N/A   Clear
5:15 AM 34.3 °F / 1.3 °C 31.3 °F / -0.4 °C 89% 30.18 in / 1021.9 hPa 10.0 miles / 16.1 kilometers North 3.5 mph / 5.6 km/h - N/A   Clear
5:35 AM 31.1 °F / -0.5 °C 28.8 °F / -1.8 °C 91% 30.19 in / 1022.2 hPa 10.0 miles / 16.1 kilometers West 4.6 mph / 7.4 km/h - N/A   Clear
5:55 AM 31.3 °F / -0.4 °C 28.8 °F / -1.8 °C 90% 30.19 in / 1022.2 hPa 10.0 miles / 16.1 kilometers WNW 3.5 mph / 5.6 km/h - N/A   Clear
6:15 AM 34.3 °F / 1.3 °C 30.7 °F / -0.7 °C 87% 30.19 in / 1022.2 hPa 10.0 miles / 16.1 kilometers NNE 4.6 mph / 7.4 km/h - N/A   Clear
6:35 AM 32.4 °F / 0.2 °C 29.3 °F / -1.5 °C 88% 30.20 in / 1022.6 hPa 10.0 miles / 16.1 kilometers NNW 3.5 mph / 5.6 km/h - N/A   Clear
6:55 AM 32.5 °F / 0.3 °C 28.6 °F / -1.9 °C 85% 30.20 in / 1022.6 hPa 10.0 miles / 16.1 kilometers Calm Calm - N/A   Clear
7:15 AM 28.8 °F / -1.8 °C 26.1 °F / -3.3 °C 90% 30.20 in / 1022.6 hPa 10.0 miles / 16.1 kilometers WNW 4.6 mph / 7.4 km/h - N/A   Clear
7:35 AM 30.4 °F / -0.9 °C 28.2 °F / -2.1 °C 92% 30.21 in / 1022.9 hPa 10.0 miles / 16.1 kilometers NW 3.5 mph / 5.6 km/h - N/A   Clear
7:55 AM 31.1 °F / -0.5 °C 28.9 °F / -1.7 °C 92% 30.22 in / 1023.2 hPa 10.0 miles / 16.1 kilometers Calm Calm - N/A   Clear
8:15 AM 33.1 °F / 0.6 °C 30.2 °F / -1.0 °C 89% 30.22 in / 1023.2 hPa 10.0 miles / 16.1 kilometers ENE 5.8 mph / 9.3 km/h - N/A   Clear
8:35 AM 36.5 °F / 2.5 °C 33.6 °F / 0.9 °C 89% 30.22 in / 1023.2 hPa 10.0 miles / 16.1 kilometers ENE 6.9 mph / 11.1 km/h - N/A   Clear
8:55 AM 40.6 °F / 4.8 °C 35.8 °F / 2.1 °C 83% 30.23 in / 1023.6 hPa 10.0 miles / 16.1 kilometers West 4.6 mph / 7.4 km/h - N/A   Clear
9:15 AM 43.0 °F / 6.1 °C 36.5 °F / 2.5 °C 78% 30.23 in / 1023.6 hPa 10.0 miles / 16.1 kilometers Calm Calm - N/A   Clear
9:35 AM 46.2 °F / 7.9 °C 38.5 °F / 3.6 °C 74% 30.23 in / 1023.6 hPa 10.0 miles / 16.1 kilometers Calm Calm - N/A   Clear
9:55 AM 49.5 °F / 9.7 °C 37.2 °F / 2.9 °C 63% 30.24 in / 1023.9 hPa 10.0 miles / 16.1 kilometers Calm Calm - N/A   Clear
10:15 AM 51.4 °F / 10.8 °C 36.7 °F / 2.6 °C 57% 30.25 in / 1024.3 hPa 10.0 miles / 16.1 kilometers SW 3.5 mph / 5.6 km/h - N/A   Clear
10:35 AM 54.3 °F / 12.4 °C 37.2 °F / 2.9 °C 52% 30.25 in / 1024.3 hPa 10.0 miles / 16.1 kilometers SSW 3.5 mph / 5.6 km/h - N/A   Clear
10:55 AM 56.7 °F / 13.7 °C 37.6 °F / 3.1 °C 49% 30.25 in / 1024.3 hPa 10.0 miles / 16.1 kilometers South 4.6 mph / 7.4 km/h - N/A   Clear
11:15 AM 58.3 °F / 14.6 °C 34.2 °F / 1.2 °C 40% 30.25 in / 1024.3 hPa 10.0 miles / 16.1 kilometers SSW 5.8 mph / 9.3 km/h - N/A   Clear
11:35 AM 60.1 °F / 15.6 °C 35.1 °F / 1.7 °C 39% 30.24 in / 1023.9 hPa 10.0 miles / 16.1 kilometers South 4.6 mph / 7.4 km/h - N/A   Clear
11:55 AM 60.8 °F / 16.0 °C 33.8 °F / 1.0 °C 36% 30.23 in / 1023.6 hPa 10.0 miles / 16.1 kilometers East 4.6 mph / 7.4 km/h - N/A   Clear
12:15 PM 61.9 °F / 16.6 °C 32.2 °F / 0.1 °C 33% 30.21 in / 1022.9 hPa 10.0 miles / 16.1 kilometers ENE 3.5 mph / 5.6 km/h - N/A   Clear
12:35 PM 63.3 °F / 17.4 °C 32.0 °F / -0.0 °C 31% 30.20 in / 1022.6 hPa 10.0 miles / 16.1 kilometers East 6.9 mph / 11.1 km/h - N/A   Clear
12:55 PM 63.7 °F / 17.6 °C 31.5 °F / -0.3 °C 30% 30.20 in / 1022.6 hPa 10.0 miles / 16.1 kilometers South 5.8 mph / 9.3 km/h - N/A   Clear
1:15 PM 64.2 °F / 17.9 °C 31.5 °F / -0.3 °C 29% 30.20 in / 1022.6 hPa 10.0 miles / 16.1 kilometers ESE 6.9 mph / 11.1 km/h - N/A   Clear
1:35 PM 64.8 °F / 18.2 °C 31.5 °F / -0.3 °C 29% 30.19 in / 1022.2 hPa 10.0 miles / 16.1 kilometers East 5.8 mph / 9.3 km/h - N/A   Clear
1:55 PM 66.0 °F / 18.9 °C 30.0 °F / -1.1 °C 26% 30.19 in / 1022.2 hPa 7.0 miles / 11.3 kilometers South 6.9 mph / 11.1 km/h - N/A   Haze
2:15 PM 65.3 °F / 18.5 °C 29.1 °F / -1.6 °C 26% 30.18 in / 1021.9 hPa 10.0 miles / 16.1 kilometers SE 3.5 mph / 5.6 km/h - N/A   Clear
2:35 PM 66.2 °F / 19.0 °C 26.6 °F / -3.0 °C 23% 30.17 in / 1021.6 hPa 10.0 miles / 16.1 kilometers WSW 4.6 mph / 7.4 km/h - N/A   Clear
2:55 PM 66.0 °F / 18.9 °C 27.3 °F / -2.6 °C 23% 30.16 in / 1021.2 hPa 10.0 miles / 16.1 kilometers Calm Calm - N/A   Clear
3:15 PM 67.1 °F / 19.5 °C 27.7 °F / -2.4 °C 23% 30.15 in / 1020.9 hPa 10.0 miles / 16.1 kilometers ENE 5.8 mph / 9.3 km/h - N/A   Clear
3:35 PM 66.6 °F / 19.2 °C 29.8 °F / -1.2 °C 25% 30.14 in / 1020.5 hPa 10.0 miles / 16.1 kilometers SE 5.8 mph / 9.3 km/h - N/A   Clear
3:55 PM 66.4 °F / 19.1 °C 28.6 °F / -1.9 °C 24% 30.13 in / 1020.2 hPa 10.0 miles / 16.1 kilometers ESE 5.8 mph / 9.3 km/h - N/A   Clear
4:15 PM 67.3 °F / 19.6 °C 27.3 °F / -2.6 °C 22% 30.11 in / 1019.5 hPa 10.0 miles / 16.1 kilometers SE 4.6 mph / 7.4 km/h - N/A   Clear
4:35 PM 66.6 °F / 19.2 °C 28.9 °F / -1.7 °C 24% 30.11 in / 1019.5 hPa 10.0 miles / 16.1 kilometers SE 4.6 mph / 7.4 km/h - N/A   Clear
4:55 PM 67.5 °F / 19.7 °C 29.5 °F / -1.4 °C 24% 30.10 in / 1019.2 hPa 10.0 miles / 16.1 kilometers SE 9.2 mph / 14.8 km/h - N/A   Clear
5:15 PM 66.9 °F / 19.4 °C 29.5 °F / -1.4 °C 25% 30.09 in / 1018.8 hPa 10.0 miles / 16.1 kilometers ESE 10.4 mph / 16.7 km/h - N/A   Clear
5:35 PM 65.8 °F / 18.8 °C 28.4 °F / -2.0 °C 25% 30.08 in / 1018.5 hPa 10.0 miles / 16.1 kilometers ESE 10.4 mph / 16.7 km/h - N/A   Clear
5:55 PM 65.1 °F / 18.4 °C 28.2 °F / -2.1 °C 25% 30.09 in / 1018.8 hPa 10.0 miles / 16.1 kilometers SE 6.9 mph / 11.1 km/h - N/A   Clear
6:15 PM 64.6 °F / 18.1 °C 28.8 °F / -1.8 °C 26% 30.09 in / 1018.8 hPa 10.0 miles / 16.1 kilometers East 6.9 mph / 11.1 km/h - N/A   Clear
6:55 PM 63.1 °F / 17.3 °C 32.0 °F / 0.0 °C 31% 30.09 in / 1018.8 hPa 10.0 miles / 16.1 kilometers East 4.6 mph / 7.4 km/h - N/A   Clear
7:15 PM 62.8 °F / 17.1 °C 30.6 °F / -0.8 °C 30% 30.10 in / 1019.2 hPa 10.0 miles / 16.1 kilometers East 5.8 mph / 9.3 km/h - N/A   Mostly Cloudy
7:35 PM 61.0 °F / 16.1 °C 32.7 °F / 0.4 °C 35% 30.10 in / 1019.2 hPa 10.0 miles / 16.1 kilometers East 6.9 mph / 11.1 km/h - N/A   Mostly Cloudy
7:55 PM 58.8 °F / 14.9 °C 36.1 °F / 2.3 °C 43% 30.09 in / 1018.8 hPa 10.0 miles / 16.1 kilometers East 9.2 mph / 14.8 km/h - N/A   Mostly Cloudy
8:15 PM 58.8 °F / 14.9 °C 34.0 °F / 1.1 °C 39% 30.08 in / 1018.5 hPa 10.0 miles / 16.1 kilometers East 8.1 mph / 13.0 km/h - N/A   Scattered Clouds
8:35 PM 57.6 °F / 14.2 °C 32.7 °F / 0.4 °C 39% 30.09 in / 1018.8 hPa 10.0 miles / 16.1 kilometers ESE 6.9 mph / 11.1 km/h - N/A   Scattered Clouds
8:55 PM 55.9 °F / 13.3 °C 33.8 °F / 1.0 °C 43% 30.08 in / 1018.5 hPa 10.0 miles / 16.1 kilometers East 8.1 mph / 13.0 km/h - N/A   Mostly Cloudy
9:15 PM 54.9 °F / 12.7 °C 33.6 °F / 0.9 °C 45% 30.08 in / 1018.5 hPa 10.0 miles / 16.1 kilometers East 6.9 mph / 11.1 km/h - N/A   Scattered Clouds
9:35 PM 55.6 °F / 13.1 °C 32.0 °F / 0.0 °C 41% 30.09 in / 1018.8 hPa 10.0 miles / 16.1 kilometers ESE 8.1 mph / 13.0 km/h - N/A   Scattered Clouds
9:55 PM 54.9 °F / 12.7 °C 32.0 °F / -0.0 °C 42% 30.09 in / 1018.8 hPa 10.0 miles / 16.1 kilometers East 8.1 mph / 13.0 km/h - N/A   Scattered Clouds
10:15 PM 54.5 °F / 12.5 °C 31.8 °F / -0.1 °C 42% 30.10 in / 1019.2 hPa 10.0 miles / 16.1 kilometers East 6.9 mph / 11.1 km/h - N/A   Clear
10:35 PM 54.1 °F / 12.3 °C 32.2 °F / 0.1 °C 43% 30.09 in / 1018.8 hPa 10.0 miles / 16.1 kilometers ESE 6.9 mph / 11.1 km/h - N/A   Clear
10:55 PM 50.5 °F / 10.3 °C 33.8 °F / 1.0 °C 53% 30.09 in / 1018.8 hPa 10.0 miles / 16.1 kilometers ESE 4.6 mph / 7.4 km/h - N/A   Clear
11:15 PM 51.8 °F / 11.0 °C 34.3 °F / 1.3 °C 51% 30.10 in / 1019.2 hPa 10.0 miles / 16.1 kilometers South 3.5 mph / 5.6 km/h - N/A   Scattered Clouds
11:35 PM 51.8 °F / 11.0 °C 34.3 °F / 1.3 °C 51% 30.10 in / 1019.2 hPa 10.0 miles / 16.1 kilometers SE 5.8 mph / 9.3 km/h - N/A   Mostly Cloudy
11:55 PM 52.3 °F / 11.3 °C 34.2 °F / 1.2 °C 50% 30.09 in / 1018.8 hPa 10.0 miles / 16.1 kilometers ESE 6.9 mph / 11.1 km/h - N/A   Scattered Clouds